Year,Month,Day,Hour,Minute,Value (Times are PST for temperature in C)
2019,09,30,00,00,5.30
2019,09,30,00,01,5.30
2019,09,30,00,02,5.30
2019,09,30,00,03,5.30
2019,09,30,00,04,5.30
2019,09,30,00,05,5.30
2019,09,30,00,06,5.30
2019,09,30,00,07,5.30
2019,09,30,00,08,5.30
2019,09,30,00,09,5.40
2019,09,30,00,10,5.40
2019,09,30,00,11,5.40
2019,09,30,00,12,5.40
2019,09,30,00,13,5.40
2019,09,30,00,14,5.40
2019,09,30,00,15,5.40
2019,09,30,00,16,5.40
2019,09,30,00,17,5.40
2019,09,30,00,18,5.40
2019,09,30,00,19,5.30
2019,09,30,00,20,5.30
2019,09,30,00,21,5.30
2019,09,30,00,22,5.30
2019,09,30,00,23,5.30
2019,09,30,00,24,5.40
2019,09,30,00,25,5.40
2019,09,30,00,26,5.40
2019,09,30,00,27,5.40
2019,09,30,00,28,5.40
2019,09,30,00,29,5.40
2019,09,30,00,30,5.30
2019,09,30,00,31,5.30
2019,09,30,00,32,5.30
2019,09,30,00,33,5.30
2019,09,30,00,34,5.30
2019,09,30,00,35,5.30
2019,09,30,00,36,5.30
2019,09,30,00,37,5.30
2019,09,30,00,38,5.20
2019,09,30,00,39,5.20
2019,09,30,00,40,5.20
2019,09,30,00,41,5.20
2019,09,30,00,42,5.30
2019,09,30,00,43,5.30
2019,09,30,00,44,5.30
2019,09,30,00,45,5.30
2019,09,30,00,46,5.30
2019,09,30,00,47,5.30
2019,09,30,00,48,5.30
2019,09,30,00,49,5.20
2019,09,30,00,50,5.20
2019,09,30,00,51,5.20
2019,09,30,00,52,5.20
2019,09,30,00,53,5.20
2019,09,30,00,54,5.10
2019,09,30,00,55,5.10
2019,09,30,00,56,5.10
2019,09,30,00,57,5.10
2019,09,30,00,58,5.10
2019,09,30,00,59,5.10
2019,09,30,01,00,5.10
2019,09,30,01,01,5.00
2019,09,30,01,02,5.00
2019,09,30,01,03,5.00
2019,09,30,01,04,5.00
2019,09,30,01,05,5.00
2019,09,30,01,06,5.00
2019,09,30,01,07,4.90
2019,09,30,01,08,4.90
2019,09,30,01,09,4.90
2019,09,30,01,10,4.90
2019,09,30,01,11,4.90
2019,09,30,01,12,5.00
2019,09,30,01,13,5.20
2019,09,30,01,14,5.30
2019,09,30,01,15,5.40
2019,09,30,01,16,5.50
2019,09,30,01,17,5.60
2019,09,30,01,18,5.70
2019,09,30,01,19,5.70
2019,09,30,01,20,5.80
2019,09,30,01,21,5.80
2019,09,30,01,22,5.90
2019,09,30,01,23,5.90
2019,09,30,01,24,5.90
2019,09,30,01,25,5.90
2019,09,30,01,26,5.90
2019,09,30,01,27,6.00
2019,09,30,01,28,6.00
2019,09,30,01,29,6.00
2019,09,30,01,30,6.00
2019,09,30,01,31,6.10
2019,09,30,01,32,6.10
2019,09,30,01,33,6.10
2019,09,30,01,34,6.10
2019,09,30,01,35,6.10
2019,09,30,01,36,6.10
2019,09,30,01,37,6.10
2019,09,30,01,38,6.10
2019,09,30,01,39,6.10
2019,09,30,01,40,6.10
2019,09,30,01,41,6.10
2019,09,30,01,42,6.10
2019,09,30,01,43,6.00
2019,09,30,01,44,6.00
2019,09,30,01,45,6.00
2019,09,30,01,46,5.90
2019,09,30,01,47,5.90
2019,09,30,01,48,5.90
2019,09,30,01,49,5.90
2019,09,30,01,50,5.80
2019,09,30,01,51,5.80
2019,09,30,01,52,5.80
2019,09,30,01,53,5.80
2019,09,30,01,54,5.80
2019,09,30,01,55,5.70
2019,09,30,01,56,5.70
2019,09,30,01,57,5.70
2019,09,30,01,58,5.70
2019,09,30,01,59,5.60
2019,09,30,02,00,5.60
2019,09,30,02,01,5.60
2019,09,30,02,02,5.60
2019,09,30,02,03,5.60
2019,09,30,02,04,5.50
2019,09,30,02,05,5.50
2019,09,30,02,06,5.50
2019,09,30,02,07,5.50
2019,09,30,02,08,5.40
2019,09,30,02,09,5.40
2019,09,30,02,10,5.40
2019,09,30,02,11,5.40
2019,09,30,02,12,5.40
2019,09,30,02,13,5.40
2019,09,30,02,14,5.40
2019,09,30,02,15,5.40
2019,09,30,02,16,5.40
2019,09,30,02,17,5.40
2019,09,30,02,18,5.30
2019,09,30,02,19,5.30
2019,09,30,02,20,5.30
2019,09,30,02,21,5.30
2019,09,30,02,22,5.30
2019,09,30,02,23,5.30
2019,09,30,02,24,5.30
2019,09,30,02,25,5.40
2019,09,30,02,26,5.40
2019,09,30,02,27,5.40
2019,09,30,02,28,5.50
2019,09,30,02,29,5.60
2019,09,30,02,30,5.60
2019,09,30,02,31,5.60
2019,09,30,02,32,5.70
2019,09,30,02,33,5.70
2019,09,30,02,34,5.70
2019,09,30,02,35,5.70
2019,09,30,02,36,5.70
2019,09,30,02,37,5.70
2019,09,30,02,38,5.70
2019,09,30,02,39,5.70
2019,09,30,02,40,5.70
2019,09,30,02,41,5.70
2019,09,30,02,42,5.70
2019,09,30,02,43,5.70
2019,09,30,02,44,5.70
2019,09,30,02,45,5.70
2019,09,30,02,46,5.80
2019,09,30,02,47,5.80
2019,09,30,02,48,5.80
2019,09,30,02,49,5.80
2019,09,30,02,50,5.80
2019,09,30,02,51,5.80
2019,09,30,02,52,5.90
2019,09,30,02,53,5.90
2019,09,30,02,54,5.90
2019,09,30,02,55,5.90
2019,09,30,02,56,5.90
2019,09,30,02,57,6.00
2019,09,30,02,58,6.00
2019,09,30,02,59,6.00
2019,09,30,03,00,6.10
2019,09,30,03,01,6.10
2019,09,30,03,02,6.10
2019,09,30,03,03,6.00
2019,09,30,03,04,6.00
2019,09,30,03,05,6.00
2019,09,30,03,06,6.00
2019,09,30,03,07,5.90
2019,09,30,03,08,5.90
2019,09,30,03,09,5.90
2019,09,30,03,10,5.90
2019,09,30,03,11,5.90
2019,09,30,03,12,5.80
2019,09,30,03,13,5.80
2019,09,30,03,14,5.80
2019,09,30,03,15,5.80
2019,09,30,03,16,5.80
2019,09,30,03,17,5.70
2019,09,30,03,18,5.70
2019,09,30,03,19,5.70
2019,09,30,03,20,5.70
2019,09,30,03,21,5.60
2019,09,30,03,22,5.60
2019,09,30,03,23,5.60
2019,09,30,03,24,5.50
2019,09,30,03,25,5.50
2019,09,30,03,26,5.40
2019,09,30,03,27,5.40
2019,09,30,03,28,5.30
2019,09,30,03,29,5.30
2019,09,30,03,30,5.30
2019,09,30,03,31,5.20
2019,09,30,03,32,5.20
2019,09,30,03,33,5.20
2019,09,30,03,34,5.10
2019,09,30,03,35,5.10
2019,09,30,03,36,5.00
2019,09,30,03,37,5.00
2019,09,30,03,38,4.90
2019,09,30,03,39,4.80
2019,09,30,03,40,4.70
2019,09,30,03,41,4.70
2019,09,30,03,42,4.60
2019,09,30,03,43,4.60
2019,09,30,03,44,4.50
2019,09,30,03,45,4.40
2019,09,30,03,46,4.40
2019,09,30,03,47,4.30
2019,09,30,03,48,4.30
2019,09,30,03,49,4.30
2019,09,30,03,50,4.20
2019,09,30,03,51,4.20
2019,09,30,03,52,4.20
2019,09,30,03,53,4.20
2019,09,30,03,54,4.20
2019,09,30,03,55,4.20
2019,09,30,03,56,4.20
2019,09,30,03,57,4.20
2019,09,30,03,58,4.20
2019,09,30,03,59,4.20
2019,09,30,04,00,4.20
2019,09,30,04,01,4.20
2019,09,30,04,02,4.20
2019,09,30,04,03,4.20
2019,09,30,04,04,4.20
2019,09,30,04,05,4.20
2019,09,30,04,06,4.20
2019,09,30,04,07,4.20
2019,09,30,04,08,4.20
2019,09,30,04,09,4.20
2019,09,30,04,10,4.20
2019,09,30,04,11,4.20
2019,09,30,04,12,4.20
2019,09,30,04,13,4.20
2019,09,30,04,14,4.20
2019,09,30,04,15,4.30
2019,09,30,04,16,4.30
2019,09,30,04,17,4.30
2019,09,30,04,18,4.40
2019,09,30,04,19,4.40
2019,09,30,04,20,4.40
2019,09,30,04,21,4.50
2019,09,30,04,22,4.50
2019,09,30,04,23,4.60
2019,09,30,04,24,4.60
2019,09,30,04,25,4.70
2019,09,30,04,26,4.80
2019,09,30,04,27,4.90
2019,09,30,04,28,5.00
2019,09,30,04,29,5.10
2019,09,30,04,30,5.10
2019,09,30,04,31,5.20
2019,09,30,04,32,5.20
2019,09,30,04,33,5.30
2019,09,30,04,34,5.40
2019,09,30,04,35,5.40
2019,09,30,04,36,5.50
2019,09,30,04,37,5.50
2019,09,30,04,38,5.60
2019,09,30,04,39,5.60
2019,09,30,04,40,5.70
2019,09,30,04,41,5.70
2019,09,30,04,42,5.70
2019,09,30,04,43,5.80
2019,09,30,04,44,5.80
2019,09,30,04,45,5.80
2019,09,30,04,46,5.80
2019,09,30,04,47,5.80
2019,09,30,04,48,5.90
2019,09,30,04,49,5.90
2019,09,30,04,50,5.90
2019,09,30,04,51,5.90
2019,09,30,04,52,5.90
2019,09,30,04,53,5.90
2019,09,30,04,54,5.90
2019,09,30,04,55,5.80
2019,09,30,04,56,5.80
2019,09,30,04,57,5.70
2019,09,30,04,58,5.70
2019,09,30,04,59,5.70
2019,09,30,05,00,5.60
2019,09,30,05,01,5.60
2019,09,30,05,02,5.60
2019,09,30,05,03,5.60
2019,09,30,05,04,5.60
2019,09,30,05,05,5.60
2019,09,30,05,06,5.60
2019,09,30,05,07,5.60
2019,09,30,05,08,5.60
2019,09,30,05,09,5.60
2019,09,30,05,10,5.60
2019,09,30,05,11,5.60
2019,09,30,05,12,5.60
2019,09,30,05,13,5.60
2019,09,30,05,14,5.60
2019,09,30,05,15,5.70
2019,09,30,05,16,5.70
2019,09,30,05,17,5.70
2019,09,30,05,18,5.70
2019,09,30,05,19,5.70
2019,09,30,05,20,5.70
2019,09,30,05,21,5.70
2019,09,30,05,22,5.60
2019,09,30,05,23,5.60
2019,09,30,05,24,5.60
2019,09,30,05,25,5.60
2019,09,30,05,26,5.50
2019,09,30,05,27,5.50
2019,09,30,05,28,5.50
2019,09,30,05,29,5.40
2019,09,30,05,30,5.40
2019,09,30,05,31,5.40
2019,09,30,05,32,5.40
2019,09,30,05,33,5.40
2019,09,30,05,34,5.40
2019,09,30,05,35,5.40
2019,09,30,05,36,5.40
2019,09,30,05,37,5.40
2019,09,30,05,38,5.40
2019,09,30,05,39,5.40
2019,09,30,05,40,5.40
2019,09,30,05,41,5.50
2019,09,30,05,42,5.50
2019,09,30,05,43,5.60
2019,09,30,05,44,5.60
2019,09,30,05,45,5.70
2019,09,30,05,46,5.70
2019,09,30,05,47,5.70
2019,09,30,05,48,5.80
2019,09,30,05,49,5.80
2019,09,30,05,50,5.80
2019,09,30,05,51,5.90
2019,09,30,05,52,5.90
2019,09,30,05,53,5.90
2019,09,30,05,54,5.90
2019,09,30,05,55,6.00
2019,09,30,05,56,6.00
2019,09,30,05,57,6.00
2019,09,30,05,58,6.00
2019,09,30,05,59,6.00
2019,09,30,06,00,6.00
2019,09,30,06,01,6.00
2019,09,30,06,02,6.00
2019,09,30,06,03,5.90
2019,09,30,06,04,5.90
2019,09,30,06,05,5.80
2019,09,30,06,06,5.80
2019,09,30,06,07,5.80
2019,09,30,06,08,5.80
2019,09,30,06,09,5.80
2019,09,30,06,10,5.80
2019,09,30,06,11,5.80
2019,09,30,06,12,5.80
2019,09,30,06,13,5.80
2019,09,30,06,14,5.80
2019,09,30,06,15,5.80
2019,09,30,06,16,5.80
2019,09,30,06,17,5.80
2019,09,30,06,18,5.80
2019,09,30,06,19,5.80
2019,09,30,06,20,5.80
2019,09,30,06,21,5.80
2019,09,30,06,22,5.80
2019,09,30,06,23,5.80
2019,09,30,06,24,5.80
2019,09,30,06,25,5.80
2019,09,30,06,26,5.80
2019,09,30,06,27,5.80
2019,09,30,06,28,5.80
2019,09,30,06,29,5.80
2019,09,30,06,30,5.70
2019,09,30,06,31,5.70
2019,09,30,06,32,5.70
2019,09,30,06,33,5.70
2019,09,30,06,34,5.70
2019,09,30,06,35,5.70
2019,09,30,06,36,5.70
2019,09,30,06,37,5.70
2019,09,30,06,38,5.70
2019,09,30,06,39,5.70
2019,09,30,06,40,5.70
2019,09,30,06,41,5.70
2019,09,30,06,42,5.70
2019,09,30,06,43,5.70
2019,09,30,06,44,5.70
2019,09,30,06,45,5.70
2019,09,30,06,46,5.70
2019,09,30,06,47,5.70
2019,09,30,06,48,5.70
2019,09,30,06,49,5.70
2019,09,30,06,50,5.70
2019,09,30,06,51,5.70
2019,09,30,06,52,5.70
2019,09,30,06,53,5.70
2019,09,30,06,54,5.70
2019,09,30,06,55,5.60
2019,09,30,06,56,5.60
2019,09,30,06,57,5.60
2019,09,30,06,58,5.60
2019,09,30,06,59,5.50
2019,09,30,07,00,5.50
2019,09,30,07,01,5.40
2019,09,30,07,02,5.40
2019,09,30,07,03,5.40
2019,09,30,07,04,5.40
2019,09,30,07,05,5.30
2019,09,30,07,06,5.30
2019,09,30,07,07,5.30
2019,09,30,07,08,5.30
2019,09,30,07,09,5.20
2019,09,30,07,10,5.20
2019,09,30,07,11,5.20
2019,09,30,07,12,5.20
2019,09,30,07,13,5.10
2019,09,30,07,14,5.10
2019,09,30,07,15,5.10
2019,09,30,07,16,5.10
2019,09,30,07,17,5.10
2019,09,30,07,18,5.10
2019,09,30,07,19,5.00
2019,09,30,07,20,5.00
2019,09,30,07,21,5.00
2019,09,30,07,22,4.90
2019,09,30,07,23,4.90
2019,09,30,07,24,4.90
2019,09,30,07,25,4.90
2019,09,30,07,26,4.90
2019,09,30,07,27,4.80
2019,09,30,07,28,4.80
2019,09,30,07,29,4.80
2019,09,30,07,30,4.80
2019,09,30,07,31,4.70
2019,09,30,07,32,4.70
2019,09,30,07,33,4.70
2019,09,30,07,34,4.70
2019,09,30,07,35,4.70
2019,09,30,07,36,4.70
2019,09,30,07,37,4.70
2019,09,30,07,38,4.70
2019,09,30,07,39,4.70
2019,09,30,07,40,4.60
2019,09,30,07,41,4.60
2019,09,30,07,42,4.60
2019,09,30,07,43,4.60
2019,09,30,07,44,4.60
2019,09,30,07,45,4.60
2019,09,30,07,46,4.60
2019,09,30,07,47,4.60
2019,09,30,07,48,4.60
2019,09,30,07,49,4.60
2019,09,30,07,50,4.50
2019,09,30,07,51,4.50
2019,09,30,07,52,4.50
2019,09,30,07,53,4.50
2019,09,30,07,54,4.50
2019,09,30,07,55,4.50
2019,09,30,07,56,4.50
2019,09,30,07,57,4.50
2019,09,30,07,58,4.40
2019,09,30,07,59,4.40
2019,09,30,08,00,4.40
2019,09,30,08,01,4.40
2019,09,30,08,02,4.40
2019,09,30,08,03,4.40
2019,09,30,08,04,4.40
2019,09,30,08,05,4.40
2019,09,30,08,06,4.40
2019,09,30,08,07,4.40
2019,09,30,08,08,4.40
2019,09,30,08,09,4.50
2019,09,30,08,10,4.50
2019,09,30,08,11,4.60
2019,09,30,08,12,4.60
2019,09,30,08,13,4.60
2019,09,30,08,14,4.60
2019,09,30,08,15,4.70
2019,09,30,08,16,4.70
2019,09,30,08,17,4.70
2019,09,30,08,18,4.70
2019,09,30,08,19,4.70
2019,09,30,08,20,4.70
2019,09,30,08,21,4.70
2019,09,30,08,22,4.70
2019,09,30,08,23,4.70
2019,09,30,08,24,4.70
2019,09,30,08,25,4.70
2019,09,30,08,26,4.70
2019,09,30,08,27,4.70
2019,09,30,08,28,4.70
2019,09,30,08,29,4.70
2019,09,30,08,30,4.70
2019,09,30,08,31,4.70
2019,09,30,08,32,4.70
2019,09,30,08,33,4.70
2019,09,30,08,34,4.70
2019,09,30,08,35,4.80
2019,09,30,08,36,4.80
2019,09,30,08,37,4.90
2019,09,30,08,38,4.90
2019,09,30,08,39,5.00
2019,09,30,08,40,5.00
2019,09,30,08,41,5.10
2019,09,30,08,42,5.20
2019,09,30,08,43,5.20
2019,09,30,08,44,5.30
2019,09,30,08,45,5.30
2019,09,30,08,46,5.40
2019,09,30,08,47,5.40
2019,09,30,08,48,5.50
2019,09,30,08,49,5.60
2019,09,30,08,50,5.60
2019,09,30,08,51,5.60
2019,09,30,08,52,5.70
2019,09,30,08,53,5.70
2019,09,30,08,54,5.70
2019,09,30,08,55,5.80
2019,09,30,08,56,5.80
2019,09,30,08,57,5.90
2019,09,30,08,58,5.90
2019,09,30,08,59,6.00
2019,09,30,09,00,6.10
2019,09,30,09,01,6.10
2019,09,30,09,02,6.20
2019,09,30,09,03,6.20
2019,09,30,09,04,6.30
2019,09,30,09,05,6.40
2019,09,30,09,06,6.40
2019,09,30,09,07,6.50
2019,09,30,09,08,6.60
2019,09,30,09,09,6.60
2019,09,30,09,10,6.70
2019,09,30,09,11,6.80
2019,09,30,09,12,6.90
2019,09,30,09,13,7.00
2019,09,30,09,14,7.10
2019,09,30,09,15,7.10
2019,09,30,09,16,7.20
2019,09,30,09,17,7.30
2019,09,30,09,18,7.40
2019,09,30,09,19,7.40
2019,09,30,09,20,7.50
2019,09,30,09,21,7.50
2019,09,30,09,22,7.60
2019,09,30,09,23,7.60
2019,09,30,09,24,7.70
2019,09,30,09,25,7.70
2019,09,30,09,26,7.80
2019,09,30,09,27,7.80
2019,09,30,09,28,7.90
2019,09,30,09,29,7.90
2019,09,30,09,30,8.00
2019,09,30,09,31,8.00
2019,09,30,09,32,8.10
2019,09,30,09,33,8.10
2019,09,30,09,34,8.10
2019,09,30,09,35,8.20
2019,09,30,09,36,8.20
2019,09,30,09,37,8.30
2019,09,30,09,38,8.30
2019,09,30,09,39,8.40
2019,09,30,09,40,8.40
2019,09,30,09,41,8.50
2019,09,30,09,42,8.50
2019,09,30,09,43,8.60
2019,09,30,09,44,8.60
2019,09,30,09,45,8.60
2019,09,30,09,46,8.70
2019,09,30,09,47,8.70
2019,09,30,09,48,8.80
2019,09,30,09,49,8.80
2019,09,30,09,50,8.80
2019,09,30,09,51,8.90
2019,09,30,09,52,8.90
2019,09,30,09,53,9.00
2019,09,30,09,54,9.10
2019,09,30,09,55,9.10
2019,09,30,09,56,9.20
2019,09,30,09,57,9.20
2019,09,30,09,58,9.20
2019,09,30,09,59,9.20
2019,09,30,10,00,9.30
2019,09,30,10,01,9.30
2019,09,30,10,02,9.30
2019,09,30,10,03,9.40
2019,09,30,10,04,9.40
2019,09,30,10,05,9.50
2019,09,30,10,06,9.60
2019,09,30,10,07,9.60
2019,09,30,10,08,9.70
2019,09,30,10,09,9.70
2019,09,30,10,10,9.80
2019,09,30,10,11,9.80
2019,09,30,10,12,9.90
2019,09,30,10,13,9.90
2019,09,30,10,14,10.00
2019,09,30,10,15,10.10
2019,09,30,10,16,10.10
2019,09,30,10,17,10.20
2019,09,30,10,18,10.30
2019,09,30,10,19,10.30
2019,09,30,10,20,10.30
2019,09,30,10,21,10.30
2019,09,30,10,22,10.30
2019,09,30,10,23,10.20
2019,09,30,10,24,10.20
2019,09,30,10,25,10.20
2019,09,30,10,26,10.20
2019,09,30,10,27,10.20
2019,09,30,10,28,10.20
2019,09,30,10,29,10.20
2019,09,30,10,30,10.20
2019,09,30,10,31,10.20
2019,09,30,10,32,10.20
2019,09,30,10,33,10.20
2019,09,30,10,34,10.20
2019,09,30,10,35,10.20
2019,09,30,10,36,10.20
2019,09,30,10,37,10.20
2019,09,30,10,38,10.20
2019,09,30,10,39,10.20
2019,09,30,10,40,10.20
2019,09,30,10,41,10.20
2019,09,30,10,42,10.30
2019,09,30,10,43,10.30
2019,09,30,10,44,10.30
2019,09,30,10,45,10.30
2019,09,30,10,46,10.40
2019,09,30,10,47,10.40
2019,09,30,10,48,10.50
2019,09,30,10,49,10.50
2019,09,30,10,50,10.60
2019,09,30,10,51,10.60
2019,09,30,10,52,10.60
2019,09,30,10,53,10.70
2019,09,30,10,54,10.70
2019,09,30,10,55,10.80
2019,09,30,10,56,10.80
2019,09,30,10,57,10.90
2019,09,30,10,58,11.00
2019,09,30,10,59,11.10
2019,09,30,11,00,11.20
2019,09,30,11,01,11.20
2019,09,30,11,02,11.30
2019,09,30,11,03,11.30
2019,09,30,11,04,11.40
2019,09,30,11,05,11.40
2019,09,30,11,06,11.50
2019,09,30,11,07,11.60
2019,09,30,11,08,11.60
2019,09,30,11,09,11.70
2019,09,30,11,10,11.70
2019,09,30,11,11,11.70
2019,09,30,11,12,11.80
2019,09,30,11,13,11.80
2019,09,30,11,14,11.80
2019,09,30,11,15,11.80
2019,09,30,11,16,11.70
2019,09,30,11,17,11.70
2019,09,30,11,18,11.70
2019,09,30,11,19,11.70
2019,09,30,11,20,11.70
2019,09,30,11,21,11.80
2019,09,30,11,22,11.80
2019,09,30,11,23,11.90
2019,09,30,11,24,11.90
2019,09,30,11,25,11.90
2019,09,30,11,26,11.90
2019,09,30,11,27,12.00
2019,09,30,11,28,12.00
2019,09,30,11,29,12.10
2019,09,30,11,30,12.10
2019,09,30,11,31,12.10
2019,09,30,11,32,12.10
2019,09,30,11,33,12.10
2019,09,30,11,34,12.10
2019,09,30,11,35,12.10
2019,09,30,11,36,12.10
2019,09,30,11,37,12.10
2019,09,30,11,38,12.10
2019,09,30,11,39,12.10
2019,09,30,11,40,12.10
2019,09,30,11,41,12.10
2019,09,30,11,42,12.10
2019,09,30,11,43,12.20
2019,09,30,11,44,12.20
2019,09,30,11,45,12.20
2019,09,30,11,46,12.30
2019,09,30,11,47,12.30
2019,09,30,11,48,12.30
2019,09,30,11,49,12.40
2019,09,30,11,50,12.50
2019,09,30,11,51,12.50
2019,09,30,11,52,12.60
2019,09,30,11,53,12.70
2019,09,30,11,54,12.70
2019,09,30,11,55,12.70
2019,09,30,11,56,12.70
2019,09,30,11,57,12.80
2019,09,30,11,58,12.80
2019,09,30,11,59,12.80
2019,09,30,12,00,12.80
2019,09,30,12,01,12.90
2019,09,30,12,02,12.90
2019,09,30,12,03,12.90
2019,09,30,12,04,12.90
2019,09,30,12,05,12.90
2019,09,30,12,06,12.90
2019,09,30,12,07,12.90
2019,09,30,12,08,12.90
2019,09,30,12,09,13.00
2019,09,30,12,10,13.00
2019,09,30,12,11,13.00
2019,09,30,12,12,13.10
2019,09,30,12,13,13.10
2019,09,30,12,14,13.10
2019,09,30,12,15,13.10
2019,09,30,12,16,13.10
2019,09,30,12,17,13.10
2019,09,30,12,18,13.10
2019,09,30,12,19,13.10
2019,09,30,12,20,13.10
2019,09,30,12,21,13.10
2019,09,30,12,22,13.20
2019,09,30,12,23,13.20
2019,09,30,12,24,13.20
2019,09,30,12,25,13.30
2019,09,30,12,26,13.30
2019,09,30,12,27,13.30
2019,09,30,12,28,13.30
2019,09,30,12,29,13.30
2019,09,30,12,30,13.30
2019,09,30,12,31,13.30
2019,09,30,12,32,13.40
2019,09,30,12,33,13.40
2019,09,30,12,34,13.40
2019,09,30,12,35,13.50
2019,09,30,12,36,13.60
2019,09,30,12,37,13.60
2019,09,30,12,38,13.70
2019,09,30,12,39,13.70
2019,09,30,12,40,13.80
2019,09,30,12,41,13.80
2019,09,30,12,42,13.90
2019,09,30,12,43,13.90
2019,09,30,12,44,14.00
2019,09,30,12,45,14.00
2019,09,30,12,46,14.10
2019,09,30,12,47,14.10
2019,09,30,12,48,14.20
2019,09,30,12,49,14.20
2019,09,30,12,50,14.20
2019,09,30,12,51,14.20
2019,09,30,12,52,14.20
2019,09,30,12,53,14.20
2019,09,30,12,54,14.20
2019,09,30,12,55,14.20
2019,09,30,12,56,14.20
2019,09,30,12,57,14.10
2019,09,30,12,58,14.10
2019,09,30,12,59,14.10
2019,09,30,13,00,14.10
2019,09,30,13,01,14.10
2019,09,30,13,02,14.10
2019,09,30,13,03,14.10
2019,09,30,13,04,14.10
2019,09,30,13,05,14.20
2019,09,30,13,06,14.20
2019,09,30,13,07,14.20
2019,09,30,13,08,14.30
2019,09,30,13,09,14.30
2019,09,30,13,10,14.30
2019,09,30,13,11,14.30
2019,09,30,13,12,14.30
2019,09,30,13,13,14.30
2019,09,30,13,14,14.30
2019,09,30,13,15,14.40
2019,09,30,13,16,14.40
2019,09,30,13,17,14.40
2019,09,30,13,18,14.40
2019,09,30,13,19,14.30
2019,09,30,13,20,14.30
2019,09,30,13,21,14.30
2019,09,30,13,22,14.30
2019,09,30,13,23,14.40
2019,09,30,13,24,14.50
2019,09,30,13,25,14.50
2019,09,30,13,26,14.60
2019,09,30,13,27,14.60
2019,09,30,13,28,14.60
2019,09,30,13,29,14.60
2019,09,30,13,30,14.60
2019,09,30,13,31,14.60
2019,09,30,13,32,14.60
2019,09,30,13,33,14.50
2019,09,30,13,34,14.50
2019,09,30,13,35,14.50
2019,09,30,13,36,14.50
2019,09,30,13,37,14.50
2019,09,30,13,38,14.50
2019,09,30,13,39,14.40
2019,09,30,13,40,14.40
2019,09,30,13,41,14.40
2019,09,30,13,42,14.50
2019,09,30,13,43,14.50
2019,09,30,13,44,14.60
2019,09,30,13,45,14.70
2019,09,30,13,46,14.70
2019,09,30,13,47,14.80
2019,09,30,13,48,14.80
2019,09,30,13,49,14.90
2019,09,30,13,50,15.00
2019,09,30,13,51,15.00
2019,09,30,13,52,15.00
2019,09,30,13,53,15.10
2019,09,30,13,54,15.10
2019,09,30,13,55,15.10
2019,09,30,13,56,15.10
2019,09,30,13,57,15.10
2019,09,30,13,58,15.10
2019,09,30,13,59,15.20
2019,09,30,14,00,15.20
2019,09,30,14,01,15.20
2019,09,30,14,02,15.10
2019,09,30,14,03,15.10
2019,09,30,14,04,15.10
2019,09,30,14,05,15.20
2019,09,30,14,06,15.20
2019,09,30,14,07,15.20
2019,09,30,14,08,15.20
2019,09,30,14,09,15.30
2019,09,30,14,10,15.30
2019,09,30,14,11,15.30
2019,09,30,14,12,15.40
2019,09,30,14,13,15.40
2019,09,30,14,14,15.40
2019,09,30,14,15,15.50
2019,09,30,14,16,15.50
2019,09,30,14,17,15.50
2019,09,30,14,18,15.50
2019,09,30,14,19,15.50
2019,09,30,14,20,15.50
2019,09,30,14,21,15.40
2019,09,30,14,22,15.40
2019,09,30,14,23,15.40
2019,09,30,14,24,15.40
2019,09,30,14,25,15.40
2019,09,30,14,26,15.50
2019,09,30,14,27,15.50
2019,09,30,14,28,15.50
2019,09,30,14,29,15.50
2019,09,30,14,30,15.50
2019,09,30,14,31,15.50
2019,09,30,14,32,15.50
2019,09,30,14,33,15.50
2019,09,30,14,34,15.50
2019,09,30,14,35,15.50
2019,09,30,14,36,15.50
2019,09,30,14,37,15.50
2019,09,30,14,38,15.50
2019,09,30,14,39,15.60
2019,09,30,14,40,15.60
2019,09,30,14,41,15.60
2019,09,30,14,42,15.60
2019,09,30,14,43,15.60
2019,09,30,14,44,15.60
2019,09,30,14,45,15.60
2019,09,30,14,46,15.60
2019,09,30,14,47,15.60
2019,09,30,14,48,15.60
2019,09,30,14,49,15.60
2019,09,30,14,50,15.60
2019,09,30,14,51,15.60
2019,09,30,14,52,15.70
2019,09,30,14,53,15.70
2019,09,30,14,54,15.80
2019,09,30,14,55,15.80
2019,09,30,14,56,15.80
2019,09,30,14,57,15.80
2019,09,30,14,58,15.80
2019,09,30,14,59,15.80
2019,09,30,15,00,15.80
2019,09,30,15,01,15.70
2019,09,30,15,02,15.70
2019,09,30,15,03,15.60
2019,09,30,15,04,15.60
2019,09,30,15,05,15.70
2019,09,30,15,06,15.70
2019,09,30,15,07,15.70
2019,09,30,15,08,15.80
2019,09,30,15,09,15.80
2019,09,30,15,10,15.90
2019,09,30,15,11,15.90
2019,09,30,15,12,15.90
2019,09,30,15,13,15.90
2019,09,30,15,14,15.90
2019,09,30,15,15,15.90
2019,09,30,15,16,15.90
2019,09,30,15,17,15.90
2019,09,30,15,18,15.90
2019,09,30,15,19,15.90
2019,09,30,15,20,15.90
2019,09,30,15,21,15.90
2019,09,30,15,22,15.90
2019,09,30,15,23,15.90
2019,09,30,15,24,15.90
2019,09,30,15,25,15.90
2019,09,30,15,26,16.00
2019,09,30,15,27,16.00
2019,09,30,15,28,16.00
2019,09,30,15,29,16.10
2019,09,30,15,30,16.10
2019,09,30,15,31,16.10
2019,09,30,15,32,16.00
2019,09,30,15,33,16.00
2019,09,30,15,34,16.00
2019,09,30,15,35,15.90
2019,09,30,15,36,15.90
2019,09,30,15,37,15.90
2019,09,30,15,38,15.90
2019,09,30,15,39,15.90
2019,09,30,15,40,15.90
2019,09,30,15,41,15.90
2019,09,30,15,42,15.90
2019,09,30,15,43,15.90
2019,09,30,15,44,15.90
2019,09,30,15,45,15.90
2019,09,30,15,46,15.90
2019,09,30,15,47,15.90
2019,09,30,15,48,15.90
2019,09,30,15,49,15.90
2019,09,30,15,50,16.00
2019,09,30,15,51,16.00
2019,09,30,15,52,16.00
2019,09,30,15,53,15.90
2019,09,30,15,54,15.90
2019,09,30,15,55,15.80
2019,09,30,15,56,15.80
2019,09,30,15,57,15.80
2019,09,30,15,58,15.80
2019,09,30,15,59,15.70
2019,09,30,16,00,15.70
2019,09,30,16,01,15.70
2019,09,30,16,02,15.70
2019,09,30,16,03,15.70
2019,09,30,16,04,15.70
2019,09,30,16,05,15.60
2019,09,30,16,06,15.60
2019,09,30,16,07,15.50
2019,09,30,16,08,15.50
2019,09,30,16,09,15.50
2019,09,30,16,10,15.50
2019,09,30,16,11,15.40
2019,09,30,16,12,15.40
2019,09,30,16,13,15.30
2019,09,30,16,14,15.30
2019,09,30,16,15,15.30
2019,09,30,16,16,15.30
2019,09,30,16,17,15.30
2019,09,30,16,18,15.30
2019,09,30,16,19,15.30
2019,09,30,16,20,15.30
2019,09,30,16,21,15.30
2019,09,30,16,22,15.20
2019,09,30,16,23,15.20
2019,09,30,16,24,15.20
2019,09,30,16,25,15.20
2019,09,30,16,26,15.20
2019,09,30,16,27,15.20
2019,09,30,16,28,15.20
2019,09,30,16,29,15.20
2019,09,30,16,30,15.20
2019,09,30,16,31,15.20
2019,09,30,16,32,15.20
2019,09,30,16,33,15.20
2019,09,30,16,34,15.30
2019,09,30,16,35,15.30
2019,09,30,16,36,15.30
2019,09,30,16,37,15.30
2019,09,30,16,38,15.30
2019,09,30,16,39,15.30
2019,09,30,16,40,15.30
2019,09,30,16,41,15.30
2019,09,30,16,42,15.30
2019,09,30,16,43,15.40
2019,09,30,16,44,15.40
2019,09,30,16,45,15.40
2019,09,30,16,46,15.40
2019,09,30,16,47,15.40
2019,09,30,16,48,15.30
2019,09,30,16,49,15.40
2019,09,30,16,50,15.40
2019,09,30,16,51,15.40
2019,09,30,16,52,15.40
2019,09,30,16,53,15.40
2019,09,30,16,54,15.40
2019,09,30,16,55,15.40
2019,09,30,16,56,15.50
2019,09,30,16,57,15.50
2019,09,30,16,58,15.50
2019,09,30,16,59,15.50
2019,09,30,17,00,15.50
2019,09,30,17,01,15.50
2019,09,30,17,02,15.50
2019,09,30,17,03,15.50
2019,09,30,17,04,15.40
2019,09,30,17,05,15.40
2019,09,30,17,06,15.40
2019,09,30,17,07,15.40
2019,09,30,17,08,15.40
2019,09,30,17,09,15.30
2019,09,30,17,10,15.30
2019,09,30,17,11,15.30
2019,09,30,17,12,15.30
2019,09,30,17,13,15.30
2019,09,30,17,14,15.30
2019,09,30,17,15,15.20
2019,09,30,17,16,15.20
2019,09,30,17,17,15.20
2019,09,30,17,18,15.20
2019,09,30,17,19,15.20
2019,09,30,17,20,15.10
2019,09,30,17,21,15.10
2019,09,30,17,22,15.10
2019,09,30,17,23,15.10
2019,09,30,17,24,15.10
2019,09,30,17,25,15.10
2019,09,30,17,26,15.10
2019,09,30,17,27,15.10
2019,09,30,17,28,15.10
2019,09,30,17,29,15.10
2019,09,30,17,30,15.10
2019,09,30,17,31,15.10
2019,09,30,17,32,15.10
2019,09,30,17,33,15.10
2019,09,30,17,34,15.10
2019,09,30,17,35,15.10
2019,09,30,17,36,15.10
2019,09,30,17,37,15.10
2019,09,30,17,38,15.10
2019,09,30,17,39,15.10
2019,09,30,17,40,15.10
2019,09,30,17,41,15.10
2019,09,30,17,42,15.10
2019,09,30,17,43,15.00
2019,09,30,17,44,15.00
2019,09,30,17,45,15.00
2019,09,30,17,46,14.90